| time (UTC) | temp F | wind direction | speed knots | gust knots | rain 1hr in | rain 24hr in | rain mn in | humidity % | barometer mb |
| 20260504050410 | 45 | 292 | 0.0 | 0.0 | 0.00 | 0.00 | 0.00 | 63 | 1015.5 |
| 20260504045911 | 46 | 293 | 0.0 | 0.0 | 0.00 | 0.00 | 0.00 | 62 | 1015.6 |
| 20260504045407 | 46 | 293 | 0.0 | 0.0 | 0.00 | 0.00 | 0.00 | 62 | 1015.6 |
| 20260504044907 | 46 | 287 | 0.0 | 0.0 | 0.00 | 0.00 | 0.00 | 62 | 1015.6 |
| 20260504044408 | 46 | 290 | 0.0 | 0.9 | 0.00 | 0.00 | 0.00 | 62 | 1015.6 |
| 20260504043901 | 46 | 290 | 0.0 | 1.7 | 0.00 | 0.00 | 0.00 | 61 | 1015.5 |
| 20260504043357 | 46 | 290 | 0.0 | 1.7 | 0.00 | 0.00 | 0.00 | 61 | 1015.5 |
| 20260504042849 | 46 | 289 | 0.0 | 0.9 | 0.00 | 0.00 | 0.00 | 61 | 1015.5 |
| 20260504041844 | 47 | 289 | 0.0 | 1.7 | 0.00 | 0.00 | 0.00 | 60 | 1015.5 |
| 20260504041343 | 47 | 289 | 0.0 | 1.7 | 0.00 | 0.00 | 0.00 | 60 | 1015.6 |
| 20260504040841 | 47 | 290 | 0.0 | 1.7 | 0.00 | 0.00 | 0.00 | 60 | 1015.5 |
| 20260504040343 | 47 | 232 | 0.0 | 0.0 | 0.00 | 0.00 | 0.00 | 61 | 1015.4 |
| 20260504035838 | 47 | 232 | 0.0 | 0.0 | 0.00 | 0.00 | 0.00 | 61 | 1015.3 |
| 20260504035340 | 47 | 233 | 0.0 | 0.0 | 0.00 | 0.00 | 0.00 | 60 | 1015.3 |
| 20260504034840 | 47 | 233 | 0.0 | 0.0 | 0.00 | 0.00 | 0.00 | 60 | 1015.2 |
| 20260504034340 | 47 | 233 | 0.0 | 0.0 | 0.00 | 0.00 | 0.00 | 60 | 1015.2 |
| 20260504033839 | 47 | 233 | 0.0 | 0.0 | 0.00 | 0.00 | 0.00 | 60 | 1015.2 |
| 20260504033339 | 47 | 231 | 0.0 | 0.0 | 0.00 | 0.00 | 0.00 | 60 | 1015.2 |
| 20260504032840 | 47 | 231 | 0.0 | 0.0 | 0.00 | 0.00 | 0.00 | 61 | 1015.1 |
| 20260504032341 | 47 | 231 | 0.0 | 0.0 | 0.00 | 0.00 | 0.00 | 60 | 1015.2 |
| 20260504031840 | 47 | 231 | 0.0 | 0.0 | 0.00 | 0.00 | 0.00 | 60 | 1015.1 |
| 20260504031341 | 47 | 231 | 0.0 | 0.0 | 0.00 | 0.00 | 0.00 | 60 | 1015.1 |
| 20260504030844 | 47 | 231 | 0.0 | 0.0 | 0.00 | 0.00 | 0.00 | 60 | 1015.1 |
| 20260504030344 | 47 | 231 | 0.0 | 0.0 | 0.00 | 0.00 | 0.00 | 61 | 1015.0 |
| 20260504025844 | 47 | 231 | 0.0 | 0.0 | 0.00 | 0.00 | 0.00 | 61 | 1015.1 |
| 20260504025344 | 47 | 231 | 0.0 | 0.0 | 0.00 | 0.00 | 0.00 | 60 | 1015.1 |
| 20260504024842 | 47 | 231 | 0.0 | 0.0 | 0.00 | 0.00 | 0.00 | 60 | 1015.1 |
| 20260504023345 | 46 | 298 | 0.0 | 0.0 | 0.00 | 0.00 | 0.00 | 62 | 1015.0 |
| 20260504022843 | 46 | 298 | 0.0 | 0.0 | 0.00 | 0.00 | 0.00 | 61 | 1014.9 |
| 20260504022342 | 46 | 298 | 0.0 | 0.0 | 0.00 | 0.00 | 0.00 | 64 | 1014.9 |
| 20260504020342 | 47 | 298 | 0.0 | 0.0 | 0.00 | 0.00 | 0.00 | 60 | 1015.0 |
| 20260504015840 | 47 | 298 | 0.0 | 0.0 | 0.00 | 0.00 | 0.00 | 60 | 1015.0 |
| 20260504014839 | 47 | 298 | 0.0 | 0.0 | 0.00 | 0.00 | 0.00 | 61 | 1014.9 |
| 20260504014339 | 47 | 298 | 0.0 | 0.0 | 0.00 | 0.00 | 0.00 | 61 | 1014.9 |
| 20260504013840 | 47 | 298 | 0.0 | 0.0 | 0.00 | 0.00 | 0.00 | 60 | 1014.9 |
| 20260504013338 | 47 | 298 | 0.0 | 0.0 | 0.00 | 0.00 | 0.00 | 61 | 1014.9 |
| 20260504012832 | 47 | 298 | 0.0 | 0.0 | 0.00 | 0.00 | 0.00 | 62 | 1014.8 |
| 20260504012331 | 47 | 298 | 0.0 | 0.0 | 0.00 | 0.00 | 0.00 | 61 | 1014.7 |
| 20260504011829 | 47 | 298 | 0.0 | 0.0 | 0.00 | 0.00 | 0.00 | 63 | 1014.7 |
| 20260504011329 | 48 | 298 | 0.0 | 0.0 | 0.00 | 0.00 | 0.00 | 62 | 1014.6 |
| 20260504010827 | 48 | 298 | 0.0 | 0.0 | 0.00 | 0.00 | 0.00 | 59 | 1014.5 |
| 20260504005825 | 48 | 298 | 0.0 | 0.0 | 0.00 | 0.00 | 0.00 | 59 | 1014.6 |
| 20260504005323 | 49 | 298 | 0.0 | 0.0 | 0.00 | 0.00 | 0.00 | 62 | 1014.5 |
| 20260504004822 | 50 | 298 | 0.0 | 0.0 | 0.00 | 0.00 | 0.00 | 62 | 1014.5 |
| 20260504004322 | 50 | 298 | 0.0 | 0.0 | 0.00 | 0.00 | 0.00 | 56 | 1014.5 |
| 20260504003819 | 51 | 298 | 0.0 | 0.0 | 0.00 | 0.00 | 0.00 | 56 | 1014.4 |
| 20260504003319 | 51 | 284 | 0.0 | 0.0 | 0.00 | 0.00 | 0.00 | 54 | 1014.4 |
| 20260504002820 | 51 | 292 | 0.0 | 0.0 | 0.00 | 0.00 | 0.00 | 53 | 1014.3 |
| 20260504002318 | 52 | 294 | 0.0 | 0.0 | 0.00 | 0.00 | 0.00 | 51 | 1014.3 |
| 20260504001315 | 53 | 295 | 0.0 | 0.0 | 0.00 | 0.00 | 0.00 | 50 | 1014.2 |
| 20260504000817 | 53 | 296 | 0.0 | 0.9 | 0.00 | 0.00 | 0.00 | 50 | 1014.2 |
| 20260504000310 | 53 | 296 | 0.0 | 2.6 | 0.00 | 0.00 | 0.00 | 49 | 1014.2 |
| 20260503235811 | 53 | 296 | 0.9 | 2.6 | 0.00 | 0.00 | 0.00 | 50 | 1014.1 |
| 20260503235311 | 54 | 274 | 0.9 | 2.6 | 0.00 | 0.00 | 0.00 | 50 | 1014.1 |
| 20260503234812 | 54 | 334 | 1.7 | 4.3 | 0.00 | 0.00 | 0.00 | 50 | 1014.1 |
| 20260503234310 | 55 | 335 | 2.6 | 4.3 | 0.00 | 0.00 | 0.00 | 49 | 1013.9 |
| 20260503233806 | 55 | 21 | 1.7 | 3.5 | 0.00 | 0.00 | 0.00 | 49 | 1013.8 |
| 20260503233306 | 55 | 345 | 1.7 | 3.5 | 0.00 | 0.00 | 0.00 | 48 | 1013.8 |
| 20260503232804 | 55 | 345 | 2.6 | 7.0 | 0.00 | 0.00 | 0.00 | 48 | 1013.7 |
| 20260503232305 | 56 | 335 | 3.5 | 7.0 | 0.00 | 0.00 | 0.00 | 48 | 1013.7 |
| 20260503231801 | 56 | 329 | 2.6 | 5.2 | 0.00 | 0.00 | 0.00 | 47 | 1013.7 |
| 20260503231301 | 56 | 294 | 2.6 | 7.0 | 0.00 | 0.00 | 0.00 | 45 | 1013.7 |
| 20260503230800 | 56 | 283 | 2.6 | 7.0 | 0.00 | 0.00 | 0.00 | 45 | 1013.7 |
| 20260503230301 | 56 | 302 | 4.3 | 8.7 | 0.00 | 0.00 | 0.00 | 48 | 1013.7 |
| 20260503225802 | 56 | 306 | 5.2 | 8.7 | 0.00 | 0.00 | 0.00 | 47 | 1013.7 |
| 20260503224752 | 57 | 6 | 5.2 | 10.4 | 0.00 | 0.00 | 0.00 | 47 | 1013.8 |
| 20260503224249 | 57 | 336 | 5.2 | 10.4 | 0.00 | 0.00 | 0.00 | 47 | 1013.9 |
| 20260503223749 | 57 | 317 | 3.5 | 7.8 | 0.00 | 0.00 | 0.00 | 48 | 1013.8 |
| 20260503223249 | 57 | 287 | 3.5 | 7.8 | 0.00 | 0.00 | 0.00 | 45 | 1013.8 |
| 20260503222749 | 57 | 340 | 3.5 | 7.8 | 0.00 | 0.00 | 0.00 | 46 | 1013.7 |
| 20260503222251 | 57 | 296 | 2.6 | 7.8 | 0.00 | 0.00 | 0.00 | 44 | 1013.7 |
| 20260503221749 | 57 | 345 | 3.5 | 8.7 | 0.00 | 0.00 | 0.00 | 46 | 1013.7 |
| 20260503221246 | 57 | 259 | 6.1 | 12.2 | 0.00 | 0.00 | 0.00 | 44 | 1013.7 |
| 20260503220748 | 57 | 345 | 6.1 | 12.2 | 0.00 | 0.00 | 0.00 | 47 | 1013.7 |
| 20260503215745 | 57 | 340 | 7.8 | 12.2 | 0.00 | 0.00 | 0.00 | 45 | 1013.8 |
| 20260503215244 | 58 | 340 | 5.2 | 10.4 | 0.00 | 0.00 | 0.00 | 46 | 1013.8 |
| 20260503214749 | 58 | 340 | 5.2 | 9.6 | 0.00 | 0.00 | 0.00 | 45 | 1013.8 |
| 20260503214246 | 58 | 340 | 6.1 | 13.9 | 0.00 | 0.00 | 0.00 | 44 | 1013.7 |
| 20260503213743 | 58 | 340 | 6.1 | 13.9 | 0.00 | 0.00 | 0.00 | 43 | 1013.7 |
| 20260503213243 | 58 | 303 | 6.1 | 13.0 | 0.00 | 0.00 | 0.00 | 44 | 1013.6 |
| 20260503212745 | 58 | 340 | 6.1 | 13.0 | 0.00 | 0.00 | 0.00 | 43 | 1013.7 |
| 20260503212242 | 59 | 323 | 5.2 | 10.4 | 0.00 | 0.00 | 0.00 | 40 | 1013.7 |
| 20260503211739 | 59 | 2 | 4.3 | 10.4 | 0.00 | 0.00 | 0.00 | 45 | 1013.6 |
| 20260503211238 | 59 | 314 | 4.3 | 9.6 | 0.00 | 0.00 | 0.00 | 44 | 1013.7 |
| 20260503210737 | 59 | 287 | 6.1 | 13.9 | 0.00 | 0.00 | 0.00 | 42 | 1013.7 |
| 20260503205738 | 59 | 336 | 7.0 | 13.0 | 0.00 | 0.00 | 0.00 | 44 | 1013.7 |
| 20260503205237 | 59 | 345 | 5.2 | 10.4 | 0.00 | 0.00 | 0.00 | 43 | 1013.6 |
| 20260503204738 | 59 | 336 | 7.8 | 15.6 | 0.00 | 0.00 | 0.00 | 43 | 1013.6 |
| 20260503204238 | 58 | 336 | 9.6 | 15.6 | 0.00 | 0.00 | 0.00 | 42 | 1013.7 |
| 20260503203736 | 58 | 345 | 7.0 | 14.8 | 0.00 | 0.00 | 0.00 | 43 | 1013.6 |
| 20260503203236 | 58 | 345 | 5.2 | 8.7 | 0.00 | 0.00 | 0.00 | 41 | 1013.6 |
| 20260503202736 | 58 | 345 | 6.1 | 14.8 | 0.00 | 0.00 | 0.00 | 40 | 1013.7 |
| 20260503202237 | 59 | 308 | 9.6 | 17.4 | 0.00 | 0.00 | 0.00 | 45 | 1013.7 |
| 20260503201737 | 59 | 345 | 8.7 | 17.4 | 0.00 | 0.00 | 0.00 | 45 | 1013.8 |
| 20260503201232 | 59 | 345 | 8.7 | 13.0 | 0.00 | 0.00 | 0.00 | 45 | 1013.8 |
| 20260503200726 | 58 | 323 | 8.7 | 13.9 | 0.00 | 0.00 | 0.00 | 44 | 1013.9 |
| 20260503200226 | 58 | 345 | 8.7 | 15.6 | 0.00 | 0.00 | 0.00 | 44 | 1014.0 |
| 20260503195727 | 58 | 335 | 8.7 | 15.6 | 0.00 | 0.00 | 0.00 | 43 | 1014.0 |
| 20260503195226 | 58 | 335 | 8.7 | 14.8 | 0.00 | 0.00 | 0.00 | 45 | 1014.1 |
| 20260503194726 | 58 | 9 | 7.0 | 14.8 | 0.00 | 0.00 | 0.00 | 47 | 1014.2 |
| 20260503194227 | 57 | 316 | 5.2 | 13.9 | 0.00 | 0.00 | 0.00 | 44 | 1014.2 |
| 20260503193727 | 57 | 250 | 7.0 | 16.5 | 0.00 | 0.00 | 0.00 | 43 | 1014.3 |
| 20260503193228 | 58 | 354 | 8.7 | 16.5 | 0.00 | 0.00 | 0.00 | 43 | 1014.4 |
| 20260503192228 | 58 | 345 | 8.7 | 16.5 | 0.00 | 0.00 | 0.00 | 47 | 1014.4 |
| 20260503185722 | 58 | 303 | 6.1 | 13.9 | 0.00 | 0.00 | 0.00 | 49 | 1014.7 |
| 20260503185215 | 57 | 291 | 6.1 | 13.0 | 0.00 | 0.00 | 0.00 | 50 | 1014.7 |
| 20260503184713 | 58 | 345 | 6.1 | 13.0 | 0.00 | 0.00 | 0.00 | 45 | 1014.7 |
| 20260503184212 | 58 | 325 | 4.3 | 11.3 | 0.00 | 0.00 | 0.00 | 46 | 1014.8 |
| 20260503182712 | 56 | 345 | 6.1 | 13.0 | 0.00 | 0.00 | 0.00 | 51 | 1015.0 |
| 20260503182212 | 56 | 252 | 6.1 | 13.0 | 0.00 | 0.00 | 0.00 | 49 | 1014.9 |
| 20260503181714 | 56 | 345 | 5.2 | 13.0 | 0.00 | 0.00 | 0.00 | 45 | 1015.0 |
| 20260503181212 | 55 | 240 | 6.1 | 12.2 | 0.00 | 0.00 | 0.00 | 53 | 1015.1 |
| 20260503180212 | 55 | 314 | 7.0 | 13.0 | 0.00 | 0.00 | 0.00 | 49 | 1015.0 |
| 20260503175714 | 56 | 296 | 7.0 | 13.0 | 0.00 | 0.00 | 0.00 | 52 | 1015.1 |
| 20260503175213 | 56 | 334 | 5.2 | 15.6 | 0.00 | 0.00 | 0.00 | 48 | 1015.1 |
| 20260503174714 | 56 | 345 | 5.2 | 15.6 | 0.00 | 0.00 | 0.00 | 50 | 1015.1 |
| 20260503174216 | 55 | 345 | 6.1 | 12.2 | 0.00 | 0.00 | 0.00 | 53 | 1015.1 |
| 20260503173710 | 55 | 335 | 5.2 | 12.2 | 0.00 | 0.00 | 0.00 | 50 | 1015.2 |
| 20260503173205 | 55 | 345 | 6.1 | 14.8 | 0.00 | 0.00 | 0.00 | 46 | 1015.2 |
| 20260503172148 | 54 | 345 | 6.1 | 12.2 | 0.00 | 0.00 | 0.00 | 52 | 1015.4 |
| 20260503171646 | 53 | 318 | 7.0 | 13.9 | 0.00 | 0.00 | 0.00 | 51 | 1015.5 |
| 20260503171144 | 53 | 345 | 8.7 | 14.8 | 0.00 | 0.00 | 0.00 | 50 | 1015.4 |
| 20260503170644 | 55 | 13 | 8.7 | 14.8 | 0.00 | 0.00 | 0.00 | 49 | 1015.6 |
| 20260503170152 | 54 | 345 | 8.7 | 18.2 | 0.00 | 0.00 | 0.00 | 50 | 1015.4 |
| 20260503160133 | 53 | 284 | 9.6 | 16.5 | 0.00 | 0.00 | 0.00 | 54 | 1016.2 |
| 20260503150133 | 50 | 10 | 8.7 | 17.4 | 0.00 | 0.00 | 0.00 | 55 | 1016.2 |
| 20260503140133 | 47 | 358 | 10.4 | 16.5 | 0.00 | 0.00 | 0.00 | 59 | 1016.2 |
| 20260503131133 | 44 | 340 | 7.0 | 13.9 | 0.00 | 0.00 | 0.00 | 68 | 1016.2 |
| 20260503130133 | 43 | 345 | 7.8 | 14.8 | 0.00 | 0.00 | 0.00 | 69 | 1016.3 |
| 20260503120128 | 40 | 345 | 7.8 | 13.0 | 0.00 | 0.00 | 0.00 | 74 | 1015.9 |
| 20260503110621 | 37 | 345 | 6.1 | 11.3 | 0.00 | 0.00 | 0.00 | 77 | 1015.3 |
| 20260503110122 | 37 | 293 | 7.0 | 10.4 | 0.00 | 0.00 | 0.00 | 78 | 1015.2 |
| 20260503100124 | 37 | 323 | 5.2 | 9.6 | 0.00 | 0.00 | 0.00 | 78 | 1014.2 |
| 20260503090123 | 38 | 345 | 5.2 | 8.7 | 0.00 | 0.00 | 0.00 | 78 | 1013.8 |
| 20260503081622 | 37 | 345 | 3.5 | 7.0 | 0.00 | 0.00 | 0.00 | 82 | 1013.5 |
| 20260503081123 | 37 | 325 | 2.6 | 4.3 | 0.00 | 0.00 | 0.00 | 82 | 1013.5 |
| 20260503080126 | 38 | 328 | 2.6 | 4.3 | 0.00 | 0.00 | 0.00 | 82 | 1013.5 |
| 20260503072621 | 38 | 326 | 4.3 | 7.8 | 0.00 | 0.00 | 0.00 | 81 | 1013.1 |
| 20260503072122 | 38 | 345 | 4.3 | 7.8 | 0.00 | 0.00 | 0.00 | 81 | 1013.0 |
| 20260503071634 | 38 | 340 | 4.3 | 7.0 | 0.00 | 0.00 | 0.00 | 81 | 1013.1 |
| 20260503071120 | 38 | 340 | 4.3 | 7.0 | 0.00 | 0.00 | 0.00 | 81 | 1013.1 |
| 20260503070622 | 39 | 340 | 6.1 | 8.7 | 0.00 | 0.00 | 0.00 | 81 | 1013.0 |
| 20260503070117 | 39 | 340 | 7.0 | 9.6 | 0.00 | 0.00 | 0.00 | 80 | 1013.0 |
| 20260503060110 | 40 | 335 | 7.0 | 9.6 | 0.00 | 0.00 | 0.00 | 81 | 1013.0 |
| 20260503055116 | 40 | 314 | 7.8 | 11.3 | 0.00 | 0.00 | 0.00 | 80 | 1013.1 |
| 20260503054614 | 40 | 323 | 7.8 | 11.3 | 0.00 | 0.00 | 0.00 | 81 | 1013.1 |
| 20260503054110 | 40 | 326 | 6.1 | 9.6 | 0.00 | 0.00 | 0.00 | 82 | 1013.1 |
| 20260503053610 | 40 | 316 | 5.2 | 9.6 | 0.00 | 0.00 | 0.00 | 82 | 1013.3 |